TimeCDT,TemperatureF,Dew PointF,Humidity,Sea Level PressureIn,VisibilityMPH,Wind Direction,Wind SpeedMPH,Gust SpeedMPH,PrecipitationIn,Events,Conditions,WindDirDegrees,DateUTC
12:04 AM,53.6,53.6,100,29.24,3.0,East,6.9,-,0.00,Rain,Light Rain,100,2012-10-18 05:04:00
12:41 AM,55.4,53.6,94,29.23,4.0,SE,9.2,-,0.01,Rain,Light Rain,130,2012-10-18 05:41:00
12:54 AM,55.0,53.1,93,29.23,4.0,SE,15.0,21.9,0.03,Rain,Rain,140,2012-10-18 05:54:00
1:54 AM,55.0,53.1,93,29.19,7.0,SE,12.7,-,0.03,Rain,Light Rain,140,2012-10-18 06:54:00
2:54 AM,55.0,53.1,93,29.14,8.0,SE,10.4,23.0,0.00,Rain,Light Rain,130,2012-10-18 07:54:00
3:42 AM,55.4,53.6,94,29.11,2.0,SE,13.8,23.0,0.03,Rain,Light Rain,130,2012-10-18 08:42:00
3:54 AM,55.0,53.1,93,29.11,2.5,ESE,13.8,24.2,0.03,Rain,Light Rain,120,2012-10-18 08:54:00
4:39 AM,55.4,53.6,94,29.08,4.0,SE,11.5,19.6,0.00,Rain,Light Rain,130,2012-10-18 09:39:00
4:54 AM,55.0,53.1,93,29.08,3.0,SE,11.5,19.6,0.00,Rain,Light Rain,130,2012-10-18 09:54:00
5:54 AM,54.0,53.1,97,29.10,3.0,SSE,10.4,17.3,0.00,,Overcast,160,2012-10-18 10:54:00
6:25 AM,53.6,51.8,94,29.13,10.0,South,9.2,-,0.00,Rain,Light Rain,180,2012-10-18 11:25:00
6:46 AM,51.8,48.2,88,29.14,10.0,SSW,9.2,-,0.00,Rain,Light Rain,200,2012-10-18 11:46:00
6:54 AM,52.0,48.9,89,29.16,10.0,SSW,5.8,-,0.00,Rain,Light Rain,200,2012-10-18 11:54:00
7:42 AM,51.8,48.2,88,29.16,10.0,South,4.6,-,0.00,,Overcast,170,2012-10-18 12:42:00
7:54 AM,51.1,48.9,92,29.18,10.0,SSE,4.6,-,0.00,,Overcast,160,2012-10-18 12:54:00
8:47 AM,51.8,48.2,88,29.18,10.0,SSE,3.5,-,0.00,Rain,Light Rain,160,2012-10-18 13:47:00
8:54 AM,51.1,48.9,92,29.19,10.0,South,5.8,-,0.00,Rain,Light Rain,170,2012-10-18 13:54:00
9:28 AM,51.8,48.2,88,29.19,2.0,South,6.9,-,0.00,Rain,Light Rain,190,2012-10-18 14:28:00
9:34 AM,50.0,48.2,94,29.19,3.0,South,6.9,-,0.00,Rain,Light Rain,190,2012-10-18 14:34:00
9:54 AM,50.0,48.0,93,29.20,5.0,South,9.2,-,0.00,,Overcast,190,2012-10-18 14:54:00
10:13 AM,50.0,48.2,94,29.20,8.0,South,5.8,-,N/A,,Overcast,190,2012-10-18 15:13:00
10:24 AM,50.0,48.2,94,29.20,8.0,SSW,4.6,-,N/A,,Overcast,200,2012-10-18 15:24:00
10:54 AM,50.0,48.0,93,29.21,9.0,South,4.6,-,0.00,Rain,Light Rain,190,2012-10-18 15:54:00
11:10 AM,50.0,48.2,94,29.20,10.0,South,5.8,-,0.00,Rain,Light Rain,190,2012-10-18 16:10:00
11:32 AM,51.8,48.2,88,29.21,10.0,South,3.5,-,0.00,Rain,Light Rain,180,2012-10-18 16:32:00
11:54 AM,51.1,48.0,89,29.22,10.0,SSE,4.6,-,0.00,Rain,Light Rain,150,2012-10-18 16:54:00
12:06 PM,51.8,48.2,88,29.21,10.0,SSE,8.1,-,0.00,,Overcast,160,2012-10-18 17:06:00
12:31 PM,51.8,48.2,88,29.22,10.0,South,6.9,-,0.00,,Overcast,170,2012-10-18 17:31:00
12:54 PM,51.1,46.9,86,29.24,10.0,South,8.1,-,0.00,Rain,Light Rain,170,2012-10-18 17:54:00
1:54 PM,51.1,46.0,83,29.26,10.0,SSE,8.1,-,0.00,,Overcast,160,2012-10-18 18:54:00
2:27 PM,51.8,44.6,76,29.25,10.0,South,8.1,-,N/A,,Overcast,170,2012-10-18 19:27:00
2:36 PM,50.0,44.6,82,29.25,4.0,South,9.2,-,0.01,Rain,Light Rain,180,2012-10-18 19:36:00
2:39 PM,50.0,46.4,87,29.26,2.5,South,10.4,-,0.01,Rain,Light Rain,170,2012-10-18 19:39:00
2:44 PM,48.2,46.4,93,29.26,1.8,South,9.2,-,0.04,Rain,Rain,170,2012-10-18 19:44:00
2:49 PM,48.2,46.4,93,29.26,2.0,SSE,8.1,-,0.04,Rain,Light Rain,160,2012-10-18 19:49:00
2:54 PM,48.9,46.0,90,29.28,3.0,SSE,8.1,-,0.04,Rain,Light Rain,160,2012-10-18 19:54:00
3:20 PM,48.2,46.4,93,29.27,5.0,South,6.9,-,0.00,Rain,Light Rain,190,2012-10-18 20:20:00
3:54 PM,50.0,46.9,89,29.30,10.0,SSE,6.9,-,0.00,,Overcast,150,2012-10-18 20:54:00
4:54 PM,48.9,46.0,90,29.33,8.0,SE,5.8,-,0.00,,Overcast,140,2012-10-18 21:54:00
5:04 PM,48.2,44.6,87,29.33,10.0,South,9.2,-,0.00,Rain,Light Rain,170,2012-10-18 22:04:00
5:14 PM,48.2,44.6,87,29.33,10.0,SE,9.2,-,0.00,Rain,Light Rain,140,2012-10-18 22:14:00
5:33 PM,46.4,44.6,93,29.35,8.0,SSE,9.2,-,0.00,Rain,Light Rain,160,2012-10-18 22:33:00
5:44 PM,46.4,44.6,93,29.36,10.0,SE,9.2,-,0.00,Rain,Light Rain,140,2012-10-18 22:44:00
5:54 PM,46.0,44.1,93,29.38,10.0,SSE,10.4,-,0.00,,Overcast,150,2012-10-18 22:54:00
6:54 PM,45.0,42.1,90,29.40,10.0,SSE,8.1,-,N/A,,Overcast,150,2012-10-18 23:54:00
7:04 PM,44.6,42.8,93,29.39,10.0,SE,6.9,-,N/A,,Overcast,140,2012-10-19 00:04:00
7:45 PM,44.6,42.8,93,29.40,10.0,SSE,6.9,-,N/A,,Overcast,160,2012-10-19 00:45:00
7:54 PM,45.0,42.1,90,29.42,10.0,SSE,5.8,-,N/A,,Overcast,160,2012-10-19 00:54:00
8:22 PM,44.6,42.8,93,29.40,10.0,SSE,5.8,-,N/A,,Overcast,150,2012-10-19 01:22:00
8:34 PM,44.6,42.8,93,29.41,10.0,SE,5.8,-,N/A,,Overcast,130,2012-10-19 01:34:00
8:40 PM,44.6,42.8,93,29.41,10.0,ESE,6.9,-,N/A,,Overcast,120,2012-10-19 01:40:00
8:54 PM,45.0,42.1,90,29.44,10.0,SE,6.9,-,N/A,,Overcast,130,2012-10-19 01:54:00
9:06 PM,44.6,42.8,93,29.42,10.0,SE,8.1,-,0.00,Rain,Light Rain,140,2012-10-19 02:06:00
9:12 PM,44.6,42.8,93,29.43,10.0,SE,6.9,-,0.00,Rain,Light Rain,140,2012-10-19 02:12:00
9:54 PM,44.1,42.1,93,29.46,10.0,SE,4.6,-,0.00,,Overcast,130,2012-10-19 02:54:00
10:30 PM,44.6,42.8,93,29.45,10.0,SE,6.9,-,0.00,,Overcast,130,2012-10-19 03:30:00
10:54 PM,44.1,42.1,93,29.47,10.0,SE,6.9,-,0.00,,Overcast,140,2012-10-19 03:54:00
11:54 PM,43.0,41.0,93,29.47,10.0,ESE,5.8,-,N/A,,Overcast,120,2012-10-19 04:54:00